Previsão horária em Allaman

Hoje, 25 Junho, Sexta-feira

Tempo Temperatura Precipitação Vento Pressão Humidade
00:00 +14°C° 0 mm 1 m/s 721 mmHg 95%
01:00 +14°C° 0.1 mm 1 m/s 721 mmHg 95%
02:00 +14°C° 0.1 mm 1 m/s 721 mmHg 96%
03:00 +13°C° 0.1 mm 1 m/s 721 mmHg 96%
04:00 +14°C° 0.2 mm 1 m/s 721 mmHg 96%
05:00 +14°C° 0.2 mm 1 m/s 721 mmHg 95%
06:00 +14°C° 0.2 mm 1 m/s 721 mmHg 95%
07:00 +15°C° 0.2 mm 1 m/s 721 mmHg 92%
08:00 +16°C° 0.2 mm 1 m/s 721 mmHg 89%
09:00 +16°C° 0.2 mm 1 m/s 721 mmHg 87%
10:00 +18°C° 0.2 mm 1 m/s 721 mmHg 82%
11:00 +19°C° 0.2 mm 1 m/s 721 mmHg 77%
12:00 +20°C° 0.2 mm 1 m/s 721 mmHg 72%
13:00 +21°C° 0.1 mm 1 m/s 721 mmHg 69%
14:00 +21°C° 0.1 mm 1 m/s 720 mmHg 66%
15:00 +21°C° 0.1 mm 1 m/s 720 mmHg 63%
16:00 +21°C° 0 mm 1 m/s 720 mmHg 68%
17:00 +20°C° 0 mm 1 m/s 720 mmHg 72%
18:00 +20°C° 0 mm 1 m/s 720 mmHg 77%
19:00 +18°C° 0 mm 1 m/s 720 mmHg 81%
20:00 +16°C° 0 mm 1 m/s 720 mmHg 85%
21:00 +14°C° 0 mm 1 m/s 720 mmHg 88%
22:00 +14°C° 0 mm 1 m/s 720 mmHg 89%
23:00 +13°C° 0 mm 1 m/s 720 mmHg 90%

Amanhã, 26 Junho, Sábado

Tempo Temperatura Precipitação Vento Pressão Humidade
00:00 +13°C° 0 mm 1 m/s 720 mmHg 90%
01:00 +13°C° 0 mm 1 m/s 720 mmHg 91%
02:00 +13°C° 0 mm 1 m/s 720 mmHg 92%
03:00 +13°C° 0 mm 1 m/s 719 mmHg 92%
04:00 +14°C° 0 mm 1 m/s 720 mmHg 89%
05:00 +15°C° 0 mm 1 m/s 720 mmHg 86%
06:00 +15°C° 0 mm 0 m/s 720 mmHg 83%
07:00 +19°C° 0 mm 1 m/s 720 mmHg 75%
08:00 +21°C° 0 mm 1 m/s 720 mmHg 67%
09:00 +23°C° 0 mm 1 m/s 720 mmHg 60%
10:00 +23°C° 0 mm 1 m/s 720 mmHg 57%
11:00 +24°C° 0 mm 1 m/s 720 mmHg 54%
12:00 +25°C° 0 mm 1 m/s 720 mmHg 51%
13:00 +25°C° 0 mm 1 m/s 719 mmHg 50%
14:00 +25°C° 0 mm 1 m/s 719 mmHg 50%
15:00 +26°C° 0 mm 1 m/s 719 mmHg 50%
16:00 +25°C° 0 mm 1 m/s 719 mmHg 57%
17:00 +24°C° 0 mm 1 m/s 719 mmHg 65%
18:00 +21°C° 0 mm 0 m/s 719 mmHg 73%
19:00 +22°C° 0 mm 1 m/s 719 mmHg 75%
20:00 +20°C° 0 mm 1 m/s 718 mmHg 77%
21:00 +18°C° 0 mm 1 m/s 718 mmHg 79%
22:00 +18°C° 0 mm 1 m/s 718 mmHg 77%
23:00 +18°C° 0 mm 1 m/s 718 mmHg 75%

Depois de amanhã, 27 Junho, Domingo

Tempo Temperatura Precipitação Vento Pressão Humidade
00:00 +18°C° 0 mm 1 m/s 718 mmHg 72%
01:00 +16°C° 0 mm 1 m/s 718 mmHg 72%
02:00 +16°C° 0 mm 1 m/s 718 mmHg 72%
03:00 +16°C° 0 mm 1 m/s 718 mmHg 71%
04:00 +18°C° 0 mm 1 m/s 718 mmHg 71%
05:00 +19°C° 0 mm 1 m/s 718 mmHg 71%
06:00 +18°C° 0 mm 0 m/s 718 mmHg 70%
07:00 +22°C° 0 mm 1 m/s 718 mmHg 65%
08:00 +24°C° 0 mm 1 m/s 718 mmHg 60%
09:00 +25°C° 0 mm 1 m/s 718 mmHg 55%
10:00 +26°C° 0 mm 1 m/s 718 mmHg 54%
11:00 +26°C° 0 mm 1 m/s 717 mmHg 53%
12:00 +27°C° 0 mm 1 m/s 717 mmHg 52%
13:00 +27°C° 0 mm 1 m/s 717 mmHg 52%
14:00 +27°C° 0 mm 1 m/s 717 mmHg 52%
15:00 +28°C° 0 mm 1 m/s 717 mmHg 52%
16:00 +26°C° 0.2 mm 1 m/s 717 mmHg 62%
17:00 +25°C° 0.2 mm 1 m/s 717 mmHg 71%
18:00 +24°C° 0.2 mm 1 m/s 717 mmHg 81%
19:00 +22°C° 0.4 mm 1 m/s 717 mmHg 83%
20:00 +21°C° 0.4 mm 1 m/s 717 mmHg 86%
21:00 +20°C° 0.4 mm 1 m/s 717 mmHg 88%
22:00 +20°C° 0.2 mm 1 m/s 717 mmHg 88%
23:00 +19°C° 0.2 mm 1 m/s 717 mmHg 88%

28 Junho, Segunda-feira

Tempo Temperatura Precipitação Vento Pressão Humidade
00:00 +19°C° 0.2 mm 1 m/s 717 mmHg 89%
01:00 +18°C° 0.1 mm 1 m/s 717 mmHg 89%
02:00 +18°C° 0.1 mm 1 m/s 717 mmHg 90%
03:00 +16°C° 0.1 mm 1 m/s 717 mmHg 91%
04:00 +18°C° 0.2 mm 1 m/s 717 mmHg 90%
05:00 +19°C° 0.2 mm 1 m/s 717 mmHg 89%
06:00 +20°C° 0.2 mm 1 m/s 717 mmHg 88%
07:00 +22°C° 0 mm 1 m/s 717 mmHg 81%
08:00 +24°C° 0 mm 1 m/s 717 mmHg 74%
09:00 +25°C° 0 mm 1 m/s 717 mmHg 67%
10:00 +25°C° 0.2 mm 1 m/s 717 mmHg 69%
11:00 +26°C° 0.2 mm 1 m/s 717 mmHg 71%
12:00 +26°C° 0.2 mm 1 m/s 717 mmHg 73%
13:00 +24°C° 2.9 mm 1 m/s 717 mmHg 79%
14:00 +23°C° 2.9 mm 1 m/s 716 mmHg 86%
15:00 +22°C° 2.9 mm 1 m/s 716 mmHg 93%
16:00 +21°C° 3.7 mm 1 m/s 716 mmHg 93%
17:00 +21°C° 3.7 mm 1 m/s 716 mmHg 94%
18:00 +21°C° 3.7 mm 1 m/s 716 mmHg 94%
19:00 +20°C° 0.9 mm 1 m/s 717 mmHg 95%
20:00 +19°C° 0.9 mm 1 m/s 717 mmHg 96%
21:00 +19°C° 0.9 mm 1 m/s 718 mmHg 97%
22:00 +18°C° 0.4 mm 1 m/s 718 mmHg 97%
23:00 +18°C° 0.4 mm 1 m/s 717 mmHg 97%

29 Junho, Terça-feira

Tempo Temperatura Precipitação Vento Pressão Humidade
00:00 +18°C° 0.4 mm 1 m/s 717 mmHg 97%
01:00 +16°C° 0.8 mm 1 m/s 717 mmHg 97%
02:00 +16°C° 0.8 mm 1 m/s 717 mmHg 97%
03:00 +16°C° 0.8 mm 1 m/s 717 mmHg 97%
04:00 +16°C° 0.6 mm 1 m/s 717 mmHg 97%
05:00 +15°C° 0.6 mm 1 m/s 717 mmHg 96%
06:00 +15°C° 0.6 mm 1 m/s 717 mmHg 96%
07:00 +16°C° 0.2 mm 1 m/s 717 mmHg 92%
08:00 +16°C° 0.2 mm 1 m/s 718 mmHg 89%
09:00 +18°C° 0.2 mm 1 m/s 718 mmHg 85%
10:00 +18°C° 0.2 mm 1 m/s 718 mmHg 84%
11:00 +18°C° 0.2 mm 1 m/s 718 mmHg 83%
12:00 +18°C° 0.2 mm 2 m/s 718 mmHg 82%
13:00 +18°C° 0.4 mm 2 m/s 718 mmHg 76%
14:00 +19°C° 0.4 mm 2 m/s 718 mmHg 70%
15:00 +20°C° 0.4 mm 3 m/s 718 mmHg 65%
16:00 +19°C° 0.1 mm 2 m/s 718 mmHg 68%
17:00 +19°C° 0.1 mm 2 m/s 718 mmHg 72%
18:00 +19°C° 0.1 mm 1 m/s 718 mmHg 76%
19:00 +18°C° 0 mm 1 m/s 718 mmHg 79%
20:00 +15°C° 0 mm 1 m/s 719 mmHg 83%
21:00 +13°C° 0 mm 1 m/s 719 mmHg 87%
22:00 +13°C° 0 mm 1 m/s 719 mmHg 88%
23:00 +13°C° 0 mm 1 m/s 718 mmHg 89%

30 Junho, Quarta-feira

Tempo Temperatura Precipitação Vento Pressão Humidade
00:00 +12°C° 0 mm 1 m/s 718 mmHg 89%
01:00 +12°C° 0 mm 1 m/s 718 mmHg 90%
02:00 +12°C° 0 mm 1 m/s 718 mmHg 91%
03:00 +12°C° 0 mm 1 m/s 717 mmHg 92%
04:00 +13°C° 0 mm 1 m/s 717 mmHg 89%
05:00 +13°C° 0 mm 0 m/s 717 mmHg 86%
06:00 +14°C° 0 mm 0 m/s 717 mmHg 84%
07:00 +16°C° 0 mm 1 m/s 717 mmHg 78%
08:00 +19°C° 0 mm 1 m/s 717 mmHg 72%
09:00 +20°C° 0 mm 1 m/s 717 mmHg 67%
10:00 +19°C° 0.2 mm 2 m/s 717 mmHg 68%
11:00 +19°C° 0.2 mm 2 m/s 717 mmHg 70%
12:00 +19°C° 0.2 mm 3 m/s 716 mmHg 72%
13:00 +18°C° 0.4 mm 3 m/s 717 mmHg 77%
14:00 +17°C° 0.4 mm 3 m/s 717 mmHg 82%
15:00 +16°C° 0.4 mm 3 m/s 717 mmHg 87%
16:00 +15°C° 0.2 mm 2 m/s 717 mmHg 88%
17:00 +15°C° 0.2 mm 2 m/s 717 mmHg 89%
18:00 +14°C° 0.2 mm 2 m/s 718 mmHg 91%
19:00 +14°C° 0.1 mm 2 m/s 718 mmHg 92%
20:00 +14°C° 0.1 mm 2 m/s 718 mmHg 93%
21:00 +13°C° 0.1 mm 2 m/s 719 mmHg 94%
22:00 +13°C° 0.1 mm 2 m/s 719 mmHg 94%
23:00 +13°C° 0.1 mm 2 m/s 719 mmHg 94%
Mostrar mais